Date String (YYYY-MM-DD hh:mm:ss) UTC,Instrument flags,absolute air pressure of the measurement (hPa),sample flow rate (lpm),inlet stack bypass flow (lpm),air temperature of the measurement (°C),ambient temperature measured by the external sensor (°C),aerosol sample conditioner tube jacket temperature (°C),OPC LED temperature (°C),internal box temperature (°C),relative humidity of the measurement (%),span deviation,mass concentration of particles derived from Lorenz-Mie calculation of OPC scattering (μg/m³),mass concentration of particles derived from Lorenz-Mie calculation of OPC scattering (μg/m³),mass concentration of particles derived from Lorenz-Mie calculation of OPC scattering (μg/m³)
DateTimeUTC,F1_M11,P_M11,Q1_M11,Q2_M11,T1_M11,T2_M11,T3_M11,T4_M11,T5_M11,U1_M11,ZSPAN_M11,X0_M11,X2_M11,X1_M11
2024-03-29 07:00:00,SystemResetWarning,0820.3,4.99,000.00,022.4,021.5,000.0,030.9,024.2,14.4,0000.0,0007.85,0003.17,0001.94
2024-03-29 07:01:00,SystemResetWarning,0820.3,5.01,000.00,022.4,021.5,000.0,030.9,024.2,14.5,0000.0,0007.32,0003.16,0001.94
2024-03-29 07:02:00,SystemResetWarning,0820.2,5.01,000.00,022.4,021.5,000.0,030.9,024.2,14.7,0000.0,0007.27,0003.21,0001.97
2024-03-29 07:03:00,SystemResetWarning,0820.2,5.00,000.00,022.4,021.6,000.0,030.9,024.2,15.0,0000.0,0007.28,0003.22,0001.97
2024-03-29 07:04:00,SystemResetWarning,0820.0,5.00,000.00,022.3,021.6,000.0,030.9,024.2,14.7,0000.0,0007.25,0003.17,0001.96
2024-03-29 07:05:00,SystemResetWarning,0820.0,4.99,000.00,022.4,021.6,000.0,030.9,024.2,14.8,0000.0,0007.59,0003.15,0001.95
2024-03-29 07:06:00,SystemResetWarning,0820.1,4.99,000.00,022.3,021.6,000.0,030.9,024.2,14.7,0000.0,0008.05,0003.14,0001.95
2024-03-29 07:07:00,SystemResetWarning,0820.0,5.02,000.00,022.3,021.6,000.0,030.9,024.2,14.7,0000.0,0007.94,0003.13,0001.95
2024-03-29 07:08:00,SystemResetWarning,0820.0,5.00,000.00,022.3,021.5,000.0,030.9,024.2,14.8,0000.0,0007.92,0003.16,0001.96
2024-03-29 07:09:00,SystemResetWarning,0820.0,4.98,000.00,022.3,021.5,000.0,030.9,024.2,14.6,0000.0,0008.10,0003.22,0001.96
2024-03-29 07:10:00,SystemResetWarning,0820.0,5.00,000.00,022.3,021.5,000.0,030.9,024.2,14.8,0000.0,0007.92,0003.21,0001.96
2024-03-29 07:11:00,SystemResetWarning,0820.0,4.99,000.00,022.3,021.5,000.0,030.9,024.2,15.1,0000.0,0008.23,0003.21,0001.96
2024-03-29 07:12:00,SystemResetWarning,0820.0,5.00,000.00,022.3,021.5,000.0,030.9,024.2,14.8,0000.0,0008.24,0003.22,0001.97
2024-03-29 07:13:00,SystemResetWarning,0820.0,5.01,000.00,022.3,021.5,000.0,030.9,024.2,14.6,0000.0,0008.39,0003.28,0001.95
2024-03-29 07:14:00,SystemResetWarning,0820.1,5.00,000.00,022.3,021.5,000.0,030.9,024.2,14.4,0000.0,0008.44,0003.29,0001.96
2024-03-29 07:15:00,SystemResetWarning,0820.2,5.00,000.00,022.3,021.5,000.0,030.9,024.1,14.3,0000.0,0008.53,0003.33,0001.96
2024-03-29 07:16:00,SystemResetWarning,0820.0,5.00,000.00,022.3,021.5,000.0,030.9,024.1,14.3,0000.0,0008.18,0003.36,0001.96
2024-03-29 07:17:00,SystemResetWarning,0820.0,4.99,000.00,022.3,021.5,000.0,030.9,024.1,14.3,0000.0,0007.72,0003.38,0001.96
2024-03-29 07:18:00,SystemResetWarning,0820.0,4.99,000.00,022.3,021.5,000.0,030.9,024.1,14.3,0000.0,0007.65,0003.35,0001.96
2024-03-29 07:19:00,SystemResetWarning,0820.0,5.00,000.00,022.3,021.5,000.0,030.9,024.1,14.3,0000.0,0007.56,0003.27,0001.94
2024-03-29 07:20:00,SystemResetWarning,0820.0,5.00,000.00,022.3,021.5,000.0,030.9,024.1,14.3,0000.0,0007.96,0003.24,0001.95
2024-03-29 07:21:00,SystemResetWarning,0820.0,5.00,000.00,022.3,021.5,000.0,030.9,024.2,14.3,0000.0,0008.24,0003.26,0001.94
2024-03-29 07:22:00,SystemResetWarning,0820.0,5.01,000.00,022.3,021.5,000.0,030.9,024.2,14.6,0000.0,0007.70,0003.27,0001.93
2024-03-29 07:23:00,SystemResetWarning,0819.9,5.01,000.00,022.3,021.5,000.0,030.9,024.1,14.6,0000.0,0007.65,0003.27,0001.91
2024-03-29 07:24:00,SystemResetWarning,0819.9,4.99,000.00,022.3,021.5,000.0,030.9,024.1,14.5,0000.0,0007.46,0003.21,0001.92
2024-03-29 07:25:00,SystemResetWarning,0819.8,4.99,000.00,022.3,021.5,000.0,030.9,024.1,14.1,0000.0,0007.37,0003.18,0001.90
2024-03-29 07:26:00,SystemResetWarning,0819.8,5.00,000.00,022.3,021.5,000.0,030.9,024.1,14.3,0000.0,0007.27,0003.13,0001.88
2024-03-29 07:27:00,SystemResetWarning,0819.9,5.00,000.00,022.3,021.5,000.0,030.9,024.1,14.5,0000.0,0007.04,0003.06,0001.88
2024-03-29 07:28:00,SystemResetWarning,0820.1,5.00,000.00,022.3,021.5,000.0,030.9,024.1,14.6,0000.0,0007.13,0003.07,0001.87
2024-03-29 07:29:00,SystemResetWarning,0820.0,5.00,000.00,022.3,021.5,000.0,030.9,024.1,14.8,0000.0,0007.33,0003.13,0001.86
2024-03-29 07:30:00,SystemResetWarning,0820.1,5.00,000.00,022.3,021.5,000.0,030.9,024.1,14.9,0000.0,0007.33,0003.16,0001.88
2024-03-29 07:31:00,SystemResetWarning,0820.2,5.00,000.00,022.3,021.5,000.0,030.9,024.1,14.9,0000.0,0006.39,0003.14,0001.85
2024-03-29 07:32:00,SystemResetWarning,0820.1,5.00,000.00,022.3,021.5,000.0,030.9,024.1,14.9,0000.0,0006.00,0003.13,0001.84
2024-03-29 07:33:00,SystemResetWarning,0820.0,4.99,000.00,022.3,021.4,000.0,030.9,024.1,14.9,0000.0,0005.90,0003.11,0001.84
2024-03-29 07:34:00,SystemResetWarning,0820.1,5.00,000.00,022.3,021.4,000.0,030.9,024.1,15.1,0000.0,0005.96,0003.12,0001.85
2024-03-29 07:35:00,SystemResetWarning,0820.1,5.00,000.00,022.3,021.4,000.0,030.9,024.1,15.4,0000.0,0006.28,0003.15,0001.85
2024-03-29 07:36:00,SystemResetWarning,0820.4,5.00,000.00,022.3,021.4,000.0,030.8,024.1,15.5,0000.0,0006.34,0003.16,0001.87
2024-03-29 07:37:00,SystemResetWarning,0820.2,5.01,000.00,022.2,021.4,000.0,030.8,024.1,15.5,0000.0,0006.24,0003.17,0001.88
2024-03-29 07:38:00,SystemResetWarning,0820.1,5.00,000.00,022.3,021.4,000.0,030.8,024.1,15.5,0000.0,0006.36,0003.18,0001.87
2024-03-29 07:39:00,SystemResetWarning,0820.1,4.99,000.00,022.2,021.4,000.0,030.8,024.1,14.9,0000.0,0006.42,0003.16,0001.86
2024-03-29 07:40:00,SystemResetWarning,0820.0,5.00,000.00,022.2,021.4,000.0,030.8,024.1,15.0,0000.0,0007.61,0003.11,0001.84
2024-03-29 07:41:00,SystemResetWarning,0820.0,4.99,000.00,022.2,021.4,000.0,030.8,024.1,14.6,0000.0,0007.58,0003.09,0001.81
2024-03-29 07:42:00,SystemResetWarning,0820.0,5.00,000.00,022.2,021.4,000.0,030.8,024.1,14.6,0000.0,0007.63,0003.08,0001.82
2024-03-29 07:43:00,SystemResetWarning,0820.0,5.00,000.00,022.2,021.3,000.0,030.8,024.1,14.8,0000.0,0007.69,0003.07,0001.83
2024-03-29 07:44:00,SystemResetWarning,0820.2,5.00,000.00,022.2,021.3,000.0,030.8,024.1,15.4,0000.0,0007.75,0003.09,0001.83
2024-03-29 07:45:00,SystemResetWarning,0820.0,5.01,000.00,022.2,021.4,000.0,030.8,024.1,15.3,0000.0,0007.72,0003.06,0001.83
2024-03-29 07:46:00,SystemResetWarning,0820.0,5.00,000.00,022.2,021.4,000.0,030.8,024.1,14.9,0000.0,0007.55,0002.97,0001.83
2024-03-29 07:47:00,SystemResetWarning,0820.1,5.01,000.00,022.2,021.4,000.0,030.8,024.0,14.9,0000.0,0007.52,0002.95,0001.82
2024-03-29 07:48:00,SystemResetWarning,0820.0,5.00,000.00,022.2,021.4,000.0,030.8,024.1,14.9,0000.0,0007.48,0002.93,0001.82
2024-03-29 07:49:00,SystemResetWarning,0819.9,5.00,000.00,022.2,021.4,000.0,030.8,024.0,15.1,0000.0,0007.50,0002.94,0001.83
2024-03-29 07:50:00,SystemResetWarning,0820.0,5.00,000.00,022.2,021.4,000.0,030.8,024.0,15.0,0000.0,0007.60,0003.00,0001.85
2024-03-29 07:51:00,SystemResetWarning,0820.0,5.00,000.00,022.2,021.4,000.0,030.8,024.0,14.8,0000.0,0006.01,0002.97,0001.85
2024-03-29 07:52:00,SystemResetWarning,0820.1,5.01,000.00,022.2,021.4,000.0,030.8,024.0,14.8,0000.0,0005.95,0002.97,0001.86
2024-03-29 07:53:00,SystemResetWarning,0820.1,5.00,000.00,022.2,021.4,000.0,030.8,024.0,14.8,0000.0,0006.07,0003.01,0001.86
2024-03-29 07:54:00,SystemResetWarning,0819.9,5.00,000.00,022.2,021.4,000.0,030.8,024.0,14.9,0000.0,0006.02,0003.00,0001.85
2024-03-29 07:55:00,SystemResetWarning,0819.8,5.00,000.00,022.2,021.4,000.0,030.8,024.0,14.8,0000.0,0005.97,0003.02,0001.83
2024-03-29 07:56:00,SystemResetWarning,0819.8,4.99,000.00,022.2,021.4,000.0,030.8,024.0,14.7,0000.0,0006.39,0003.00,0001.80
2024-03-29 07:57:00,SystemResetWarning,0819.9,4.99,000.00,022.2,021.4,000.0,030.8,024.0,14.8,0000.0,0006.47,0003.00,0001.79
2024-03-29 07:58:00,SystemResetWarning,0820.0,4.99,000.00,022.2,021.4,000.0,030.8,024.0,14.9,0000.0,0006.29,0002.95,0001.78
2024-03-29 07:59:00,SystemResetWarning,0819.9,5.01,000.00,022.2,021.4,000.0,030.8,024.0,15.1,0000.0,0006.57,0002.96,0001.76
